| time (UTC) | temp F | wind direction | speed MPH | gust MPH | rain 1hr in | rain 24hr in | rain mn in | humidity % | barometer mb |
| 20260506212506 | 62 | 286 | 19.0 | 29.0 | 0.00 | 0.00 | 0.00 | 28 | 1013.0 |
| 20260506212006 | 61 | 285 | 18.0 | 26.0 | 0.00 | 0.00 | 0.00 | 29 | 1012.9 |
| 20260506211006 | 61 | 284 | 20.0 | 26.0 | 0.00 | 0.00 | 0.00 | 27 | 1013.3 |
| 20260506210006 | 60 | 300 | 16.0 | 25.0 | 0.00 | 0.00 | 0.00 | 27 | 1013.4 |
| 20260506205506 | 60 | 272 | 16.0 | 29.0 | 0.00 | 0.00 | 0.00 | 27 | 1013.6 |
| 20260506204506 | 60 | 297 | 16.0 | 29.0 | 0.00 | 0.00 | 0.00 | 28 | 1013.8 |
| 20260506204006 | 59 | 249 | 16.0 | 26.0 | 0.00 | 0.00 | 0.00 | 28 | 1013.9 |
| 20260506203506 | 59 | 287 | 17.0 | 26.0 | 0.00 | 0.00 | 0.00 | 28 | 1014.1 |
| 20260506203006 | 59 | 261 | 18.0 | 26.0 | 0.00 | 0.00 | 0.00 | 27 | 1014.2 |
| 20260506202505 | 59 | 266 | 16.0 | 26.0 | 0.00 | 0.00 | 0.00 | 27 | 1014.3 |
| 20260506202006 | 58 | 270 | 16.0 | 24.0 | 0.00 | 0.00 | 0.00 | 28 | 1014.3 |
| 20260506201505 | 58 | 268 | 16.0 | 26.0 | 0.00 | 0.00 | 0.00 | 26 | 1014.5 |
| 20260506201006 | 58 | 251 | 19.0 | 26.0 | 0.00 | 0.00 | 0.00 | 27 | 1014.5 |
| 20260506200006 | 58 | 262 | 16.0 | 23.0 | 0.00 | 0.00 | 0.00 | 27 | 1014.7 |
| 20260506195506 | 57 | 288 | 13.0 | 26.0 | 0.00 | 0.00 | 0.00 | 29 | 1014.8 |
| 20260506195006 | 57 | 252 | 16.0 | 26.0 | 0.00 | 0.00 | 0.00 | 27 | 1014.9 |
| 20260506194506 | 57 | 279 | 17.0 | 26.0 | 0.00 | 0.00 | 0.00 | 28 | 1015.0 |
| 20260506194006 | 56 | 261 | 15.0 | 26.0 | 0.00 | 0.00 | 0.00 | 28 | 1015.0 |
| 20260506193506 | 56 | 276 | 20.0 | 26.0 | 0.00 | 0.00 | 0.00 | 28 | 1015.3 |
| 20260506193006 | 56 | 263 | 14.0 | 28.0 | 0.00 | 0.01 | 0.00 | 29 | 1015.4 |
| 20260506192506 | 56 | 274 | 18.0 | 28.0 | 0.00 | 0.01 | 0.00 | 28 | 1015.5 |
| 20260506192006 | 56 | 285 | 17.0 | 28.0 | 0.00 | 0.01 | 0.00 | 29 | 1015.4 |
| 20260506191506 | 55 | 276 | 18.0 | 26.0 | 0.00 | 0.01 | 0.00 | 28 | 1015.4 |
| 20260506191006 | 54 | 269 | 19.0 | 26.0 | 0.00 | 0.01 | 0.00 | 28 | 1015.7 |
| 20260506190006 | 54 | 275 | 17.0 | 26.0 | 0.00 | 0.01 | 0.00 | 29 | 1015.8 |
| 20260506185506 | 54 | 274 | 18.0 | 28.0 | 0.00 | 0.01 | 0.00 | 29 | 1015.8 |
| 20260506185006 | 54 | 241 | 16.0 | 28.0 | 0.00 | 0.01 | 0.00 | 30 | 1016.0 |
| 20260506184506 | 54 | 274 | 17.0 | 25.0 | 0.00 | 0.01 | 0.00 | 30 | 1016.1 |
| 20260506183006 | 53 | 238 | 17.0 | 26.0 | 0.00 | 0.01 | 0.00 | 30 | 1016.2 |
| 20260506182506 | 52 | 267 | 16.0 | 25.0 | 0.00 | 0.01 | 0.00 | 31 | 1016.4 |
| 20260506182005 | 52 | 257 | 14.0 | 26.0 | 0.00 | 0.01 | 0.00 | 34 | 1016.5 |
| 20260506181506 | 51 | 263 | 17.0 | 28.0 | 0.00 | 0.01 | 0.00 | 30 | 1016.6 |
| 20260506181006 | 51 | 252 | 17.0 | 28.0 | 0.00 | 0.01 | 0.00 | 32 | 1016.7 |
| 20260506180006 | 51 | 260 | 18.0 | 26.0 | 0.00 | 0.01 | 0.00 | 32 | 1016.9 |
| 20260506175506 | 50 | 262 | 17.0 | 26.0 | 0.00 | 0.01 | 0.00 | 32 | 1017.1 |
| 20260506175006 | 50 | 251 | 18.0 | 26.0 | 0.00 | 0.01 | 0.00 | 31 | 1017.1 |
| 20260506174506 | 50 | 249 | 17.0 | 26.0 | 0.00 | 0.01 | 0.00 | 33 | 1017.2 |
| 20260506174005 | 49 | 256 | 17.0 | 26.0 | 0.00 | 0.01 | 0.00 | 31 | 1017.4 |
| 20260506173506 | 49 | 264 | 16.0 | 26.0 | 0.00 | 0.01 | 0.00 | 31 | 1017.5 |
| 20260506173007 | 49 | 261 | 17.0 | 26.0 | 0.00 | 0.01 | 0.00 | 31 | 1017.5 |
| 20260506172506 | 49 | 275 | 17.0 | 26.0 | 0.00 | 0.01 | 0.00 | 32 | 1017.6 |
| 20260506172006 | 48 | 265 | 19.0 | 26.0 | 0.00 | 0.01 | 0.00 | 31 | 1017.6 |
| 20260506171506 | 48 | 254 | 19.0 | 26.0 | 0.00 | 0.01 | 0.00 | 31 | 1017.7 |
| 20260506170005 | 48 | 250 | 16.0 | 26.0 | 0.00 | 0.01 | 0.00 | 34 | 1017.8 |
| 20260506165506 | 48 | 254 | 19.0 | 26.0 | 0.00 | 0.01 | 0.00 | 31 | 1018.0 |
| 20260506165006 | 48 | 281 | 17.0 | 23.0 | 0.00 | 0.01 | 0.00 | 33 | 1018.0 |
| 20260506164006 | 47 | 280 | 17.0 | 23.0 | 0.00 | 0.01 | 0.00 | 33 | 1018.1 |
| 20260506163506 | 47 | 268 | 15.0 | 20.0 | 0.00 | 0.01 | 0.00 | 35 | 1018.1 |
| 20260506163006 | 46 | 275 | 13.0 | 21.0 | 0.00 | 0.01 | 0.00 | 38 | 1018.3 |
| 20260506162506 | 46 | 265 | 14.0 | 21.0 | 0.00 | 0.01 | 0.00 | 38 | 1018.4 |
| 20260506162006 | 45 | 260 | 16.0 | 26.0 | 0.00 | 0.01 | 0.00 | 38 | 1018.5 |
| 20260506161006 | 44 | 254 | 16.0 | 26.0 | 0.00 | 0.01 | 0.00 | 41 | 1018.6 |
| 20260506160005 | 44 | 255 | 14.0 | 20.0 | 0.00 | 0.01 | 0.00 | 45 | 1018.7 |
| 20260506155506 | 43 | 266 | 14.0 | 20.0 | 0.00 | 0.01 | 0.00 | 45 | 1018.7 |
| 20260506155006 | 43 | 276 | 16.0 | 20.0 | 0.00 | 0.01 | 0.00 | 43 | 1018.7 |
| 20260506154506 | 43 | 268 | 14.0 | 23.0 | 0.00 | 0.01 | 0.00 | 47 | 1018.8 |
| 20260506154007 | 42 | 264 | 14.0 | 23.0 | 0.00 | 0.01 | 0.00 | 47 | 1018.8 |
| 20260506153506 | 42 | 259 | 14.0 | 21.0 | 0.00 | 0.01 | 0.00 | 47 | 1018.9 |
| 20260506153006 | 42 | 257 | 13.0 | 18.0 | 0.00 | 0.01 | 0.00 | 48 | 1018.8 |
| 20260506152506 | 42 | 267 | 12.0 | 17.0 | 0.00 | 0.01 | 0.00 | 51 | 1018.9 |
| 20260506151505 | 41 | 255 | 13.0 | 17.0 | 0.00 | 0.01 | 0.00 | 49 | 1018.9 |
| 20260506151006 | 41 | 255 | 10.0 | 17.0 | 0.00 | 0.01 | 0.00 | 53 | 1019.0 |
| 20260506150005 | 39 | 258 | 10.0 | 14.0 | 0.00 | 0.01 | 0.00 | 59 | 1019.1 |
| 20260506145506 | 39 | 260 | 9.0 | 12.0 | 0.00 | 0.01 | 0.00 | 62 | 1019.2 |
| 20260506144006 | 37 | 271 | 9.0 | 14.0 | 0.00 | 0.01 | 0.00 | 66 | 1019.4 |
| 20260506143506 | 37 | 273 | 10.0 | 14.0 | 0.00 | 0.01 | 0.00 | 66 | 1019.5 |
| 20260506142505 | 36 | 258 | 7.0 | 12.0 | 0.00 | 0.01 | 0.00 | 67 | 1019.5 |
| 20260506142006 | 36 | 272 | 9.0 | 10.0 | 0.00 | 0.01 | 0.00 | 68 | 1019.6 |
| 20260506141506 | 36 | 248 | 7.0 | 10.0 | 0.00 | 0.01 | 0.00 | 69 | 1019.6 |
| 20260506141006 | 35 | 250 | 7.0 | 10.0 | 0.00 | 0.01 | 0.00 | 67 | 1019.6 |
| 20260506140006 | 34 | 234 | 5.0 | 7.0 | 0.00 | 0.01 | 0.00 | 68 | 1019.7 |
| 20260506135512 | 34 | 237 | 5.0 | 9.0 | 0.00 | 0.01 | 0.00 | 69 | 1019.7 |
| 20260506135006 | 33 | 234 | 6.0 | 10.0 | 0.00 | 0.01 | 0.00 | 68 | 1019.8 |
| 20260506134506 | 33 | 231 | 7.0 | 10.0 | 0.00 | 0.01 | 0.00 | 68 | 1019.8 |
| 20260506134006 | 33 | 227 | 6.0 | 10.0 | 0.00 | 0.01 | 0.00 | 69 | 1019.8 |
| 20260506133506 | 32 | 211 | 6.0 | 10.0 | 0.00 | 0.01 | 0.00 | 69 | 1019.9 |
| 20260506133006 | 32 | 232 | 7.0 | 10.0 | 0.00 | 0.01 | 0.00 | 70 | 1019.8 |
| 20260506132506 | 32 | 231 | 7.0 | 10.0 | 0.00 | 0.01 | 0.00 | 71 | 1019.8 |
| 20260506132006 | 31 | 233 | 8.0 | 10.0 | 0.00 | 0.01 | 0.00 | 71 | 1019.8 |
| 20260506131506 | 31 | 227 | 6.0 | 9.0 | 0.00 | 0.01 | 0.00 | 72 | 1019.8 |
| 20260506131006 | 31 | 212 | 5.0 | 10.0 | 0.00 | 0.01 | 0.00 | 73 | 1019.8 |
| 20260506130006 | 30 | 204 | 7.0 | 10.0 | 0.00 | 0.01 | 0.00 | 73 | 1019.8 |
| 20260506125506 | 30 | 218 | 6.0 | 10.0 | 0.00 | 0.01 | 0.00 | 74 | 1019.7 |
| 20260506125006 | 30 | 208 | 6.0 | 9.0 | 0.00 | 0.01 | 0.00 | 74 | 1019.7 |
| 20260506124505 | 29 | 223 | 5.0 | 10.0 | 0.00 | 0.01 | 0.00 | 75 | 1019.8 |
| 20260506124006 | 29 | 208 | 6.0 | 10.0 | 0.00 | 0.01 | 0.00 | 75 | 1019.8 |
| 20260506123506 | 29 | 207 | 6.0 | 9.0 | 0.00 | 0.01 | 0.00 | 76 | 1019.8 |
| 20260506123006 | 28 | 208 | 6.0 | 9.0 | 0.00 | 0.01 | 0.00 | 77 | 1019.8 |
| 20260506122505 | 28 | 230 | 6.0 | 8.0 | 0.00 | 0.01 | 0.00 | 78 | 1019.8 |
| 20260506122006 | 28 | 237 | 6.0 | 8.0 | 0.00 | 0.01 | 0.00 | 78 | 1019.8 |
| 20260506121506 | 27 | 240 | 6.0 | 8.0 | 0.00 | 0.01 | 0.00 | 78 | 1019.7 |
| 20260506121006 | 27 | 234 | 6.0 | 8.0 | 0.00 | 0.01 | 0.00 | 78 | 1019.7 |
| 20260506120005 | 27 | 231 | 6.0 | 7.0 | 0.00 | 0.01 | 0.00 | 78 | 1019.8 |
| 20260506115505 | 28 | 235 | 5.0 | 7.0 | 0.00 | 0.01 | 0.00 | 78 | 1019.7 |
| 20260506115006 | 28 | 233 | 5.0 | 8.0 | 0.00 | 0.01 | 0.00 | 77 | 1019.7 |
| 20260506114006 | 28 | 234 | 6.0 | 8.0 | 0.00 | 0.01 | 0.00 | 77 | 1019.7 |
| 20260506113506 | 28 | 231 | 6.0 | 8.0 | 0.00 | 0.01 | 0.00 | 77 | 1019.7 |
| 20260506113006 | 29 | 233 | 5.0 | 8.0 | 0.00 | 0.01 | 0.00 | 77 | 1019.7 |
| 20260506112505 | 29 | 230 | 5.0 | 7.0 | 0.00 | 0.01 | 0.00 | 77 | 1019.8 |
| 20260506112006 | 29 | 217 | 5.0 | 7.0 | 0.00 | 0.01 | 0.00 | 77 | 1019.8 |
| 20260506111505 | 29 | 216 | 5.0 | 8.0 | 0.00 | 0.01 | 0.00 | 77 | 1019.8 |
| 20260506111006 | 29 | 231 | 6.0 | 8.0 | 0.00 | 0.01 | 0.00 | 77 | 1019.8 |
| 20260506110005 | 29 | 211 | 6.0 | 10.0 | 0.00 | 0.01 | 0.00 | 78 | 1019.8 |
| 20260506105506 | 29 | 205 | 7.0 | 9.0 | 0.00 | 0.01 | 0.00 | 78 | 1019.9 |
| 20260506105006 | 29 | 203 | 6.0 | 9.0 | 0.00 | 0.01 | 0.00 | 78 | 1019.9 |
| 20260506104505 | 29 | 210 | 6.0 | 12.0 | 0.00 | 0.01 | 0.00 | 78 | 1019.9 |
| 20260506104006 | 29 | 206 | 6.0 | 12.0 | 0.00 | 0.01 | 0.00 | 78 | 1019.9 |
| 20260506103506 | 29 | 203 | 8.0 | 12.0 | 0.00 | 0.01 | 0.00 | 78 | 1019.9 |
| 20260506103006 | 30 | 204 | 7.0 | 10.0 | 0.00 | 0.01 | 0.00 | 78 | 1019.9 |
| 20260506102506 | 29 | 207 | 6.0 | 10.0 | 0.00 | 0.01 | 0.00 | 79 | 1019.9 |
| 20260506102006 | 29 | 207 | 6.0 | 10.0 | 0.00 | 0.01 | 0.00 | 80 | 1019.9 |
| 20260506101505 | 29 | 200 | 7.0 | 10.0 | 0.00 | 0.01 | 0.00 | 80 | 1019.9 |
| 20260506101006 | 30 | 217 | 5.0 | 7.0 | 0.00 | 0.01 | 0.00 | 80 | 1019.9 |
| 20260506100006 | 30 | 218 | 5.0 | 8.0 | 0.00 | 0.01 | 0.00 | 80 | 1019.9 |
| 20260506094506 | 30 | 200 | 6.0 | 9.0 | 0.00 | 0.01 | 0.00 | 79 | 1020.0 |
| 20260506094006 | 30 | 211 | 5.0 | 8.0 | 0.00 | 0.01 | 0.00 | 79 | 1020.0 |
| 20260506093506 | 30 | 206 | 5.0 | 8.0 | 0.00 | 0.01 | 0.00 | 80 | 1020.0 |
| 20260506093006 | 30 | 215 | 5.0 | 7.0 | 0.00 | 0.01 | 0.00 | 81 | 1020.1 |
| 20260506092505 | 30 | 212 | 5.0 | 7.0 | 0.00 | 0.01 | 0.00 | 81 | 1020.1 |
| 20260506092005 | 31 | 217 | 5.0 | 7.0 | 0.00 | 0.01 | 0.00 | 81 | 1020.1 |
| 20260506091505 | 31 | 239 | 5.0 | 7.0 | 0.00 | 0.01 | 0.00 | 81 | 1020.1 |
| 20260506085505 | 30 | 224 | 5.0 | 7.0 | 0.00 | 0.01 | 0.00 | 83 | 1020.1 |
| 20260506084505 | 30 | 214 | 3.0 | 7.0 | 0.00 | 0.01 | 0.00 | 83 | 1020.1 |
| 20260506084005 | 30 | 203 | 5.0 | 7.0 | 0.00 | 0.01 | 0.00 | 82 | 1020.1 |
| 20260506083505 | 30 | 207 | 4.0 | 7.0 | 0.00 | 0.01 | 0.00 | 82 | 1020.1 |
| 20260506083006 | 30 | 240 | 5.0 | 6.0 | 0.00 | 0.01 | 0.00 | 82 | 1020.1 |
| 20260506082505 | 30 | 233 | 5.0 | 8.0 | 0.00 | 0.01 | 0.00 | 81 | 1020.1 |
| 20260506082006 | 31 | 239 | 5.0 | 8.0 | 0.00 | 0.01 | 0.00 | 80 | 1020.1 |
| 20260506081506 | 31 | 249 | 7.0 | 9.0 | 0.00 | 0.01 | 0.00 | 81 | 1020.1 |
| 20260506081006 | 31 | 244 | 5.0 | 9.0 | 0.00 | 0.01 | 0.00 | 82 | 1020.1 |
| 20260506073505 | 30 | 236 | 5.0 | 5.0 | 0.00 | 0.01 | 0.00 | 83 | 1020.1 |
| 20260506073005 | 31 | 233 | 3.0 | 5.0 | 0.00 | 0.01 | 0.00 | 82 | 1020.2 |
| 20260506072506 | 31 | 237 | 5.0 | 5.0 | 0.00 | 0.01 | 0.00 | 82 | 1020.2 |
| 20260506072005 | 31 | 233 | 5.0 | 5.0 | 0.00 | 0.01 | 0.00 | 83 | 1020.2 |
| 20260506071505 | 31 | 237 | 3.0 | 3.0 | 0.00 | 0.01 | 0.00 | 84 | 1020.2 |
| 20260506071006 | 31 | 238 | 2.0 | 5.0 | 0.00 | 0.01 | 0.00 | 84 | 1020.2 |
| 20260506062505 | 31 | 250 | 2.0 | 5.0 | 0.00 | 0.01 | 0.00 | 82 | 1020.4 |
| 20260506062005 | 32 | 251 | 3.0 | 8.0 | 0.00 | 0.01 | 0.00 | 81 | 1020.4 |
| 20260506061505 | 32 | 247 | 5.0 | 8.0 | 0.00 | 0.01 | 0.00 | 80 | 1020.4 |
| 20260506061006 | 33 | 209 | 3.0 | 9.0 | 0.00 | 0.01 | 0.00 | 80 | 1020.2 |
| 20260506051006 | 33 | 224 | 5.0 | 8.0 | 0.00 | 0.01 | 0.01 | 82 | 1020.0 |
| 20260506044505 | 34 | 213 | 5.0 | 6.0 | 0.00 | 0.01 | 0.01 | 81 | 1020.1 |
| 20260506044005 | 34 | 203 | 3.0 | 6.0 | 0.00 | 0.01 | 0.01 | 81 | 1020.1 |
| 20260506043505 | 34 | 199 | 5.0 | 7.0 | 0.00 | 0.01 | 0.01 | 81 | 1020.1 |
| 20260506043005 | 34 | 199 | 5.0 | 7.0 | 0.00 | 0.01 | 0.01 | 81 | 1020.1 |
| 20260506042505 | 33 | 197 | 5.0 | 6.0 | 0.00 | 0.01 | 0.01 | 81 | 1020.1 |
| 20260506042005 | 33 | 195 | 5.0 | 6.0 | 0.00 | 0.01 | 0.01 | 79 | 1020.1 |
| 20260506041505 | 34 | 196 | 5.0 | 5.0 | 0.00 | 0.01 | 0.01 | 78 | 1020.0 |
| 20260506041006 | 34 | 217 | 3.0 | 5.0 | 0.00 | 0.01 | 0.01 | 77 | 1020.0 |
| 20260506040005 | 34 | 295 | 1.0 | 3.0 | 0.00 | 0.01 | 0.01 | 74 | 1020.0 |
| 20260506035505 | 35 | 279 | 2.0 | 3.0 | 0.00 | 0.01 | 0.01 | 75 | 1019.9 |
| 20260506035005 | 35 | 282 | 2.0 | 3.0 | 0.00 | 0.01 | 0.01 | 76 | 1019.9 |
| 20260506034506 | 35 | 274 | 3.0 | 3.0 | 0.00 | 0.01 | 0.01 | 76 | 1019.9 |
| 20260506034006 | 35 | 280 | 3.0 | 3.0 | 0.00 | 0.01 | 0.01 | 76 | 1019.9 |
| 20260506033505 | 35 | 281 | 2.0 | 3.0 | 0.00 | 0.01 | 0.01 | 76 | 1019.8 |
| 20260506031005 | 35 | 319 | 1.0 | 3.0 | 0.00 | 0.01 | 0.01 | 73 | 1019.5 |
| 20260506030005 | 36 | 326 | 0.0 | 2.0 | 0.00 | 0.01 | 0.01 | 71 | 1019.4 |
| 20260506025505 | 36 | 323 | 0.0 | 3.0 | 0.00 | 0.01 | 0.01 | 71 | 1019.4 |
| 20260506024505 | 36 | 331 | 2.0 | 6.0 | 0.00 | 0.01 | 0.01 | 71 | 1019.1 |
| 20260506023505 | 37 | 323 | 3.0 | 6.0 | 0.00 | 0.01 | 0.01 | 68 | 1019.0 |
| 20260506022505 | 38 | 343 | 5.0 | 6.0 | 0.00 | 0.01 | 0.01 | 64 | 1018.8 |
| 20260506022006 | 38 | 5 | 3.0 | 6.0 | 0.00 | 0.01 | 0.01 | 60 | 1018.7 |
| 20260506021505 | 38 | 8 | 3.0 | 9.0 | 0.00 | 0.01 | 0.01 | 60 | 1018.7 |
| 20260506021005 | 39 | 11 | 5.0 | 12.0 | 0.00 | 0.01 | 0.01 | 60 | 1018.6 |
| 20260506020005 | 39 | 351 | 7.0 | 12.0 | 0.00 | 0.01 | 0.01 | 59 | 1018.5 |
| 20260506015505 | 39 | 2 | 7.0 | 13.0 | 0.00 | 0.01 | 0.01 | 58 | 1018.4 |
| 20260506014505 | 39 | 358 | 8.0 | 17.0 | 0.00 | 0.01 | 0.01 | 58 | 1018.2 |
| 20260506014005 | 39 | 355 | 10.0 | 18.0 | 0.00 | 0.01 | 0.01 | 58 | 1018.1 |
| 20260506013005 | 40 | 359 | 11.0 | 15.0 | 0.00 | 0.01 | 0.01 | 57 | 1018.1 |
| 20260506012505 | 41 | 5 | 6.0 | 13.0 | 0.00 | 0.01 | 0.01 | 55 | 1018.1 |
| 20260506012005 | 41 | 357 | 7.0 | 12.0 | 0.00 | 0.01 | 0.01 | 56 | 1018.0 |
| 20260506011505 | 41 | 13 | 3.0 | 12.0 | 0.00 | 0.01 | 0.01 | 59 | 1017.9 |
| 20260506011005 | 41 | 2 | 5.0 | 12.0 | 0.00 | 0.01 | 0.01 | 58 | 1017.8 |
| 20260506010005 | 42 | 20 | 6.0 | 10.0 | 0.00 | 0.01 | 0.01 | 59 | 1017.7 |
| 20260506005505 | 41 | 9 | 6.0 | 10.0 | 0.00 | 0.01 | 0.01 | 60 | 1017.8 |
| 20260506005005 | 41 | 2 | 5.0 | 9.0 | 0.00 | 0.01 | 0.01 | 62 | 1017.7 |
| 20260506004506 | 41 | 358 | 3.0 | 9.0 | 0.00 | 0.01 | 0.01 | 63 | 1017.7 |
| 20260506004006 | 41 | 290 | 4.0 | 9.0 | 0.00 | 0.01 | 0.01 | 65 | 1017.7 |
| 20260506003505 | 40 | 329 | 2.0 | 9.0 | 0.00 | 0.01 | 0.01 | 66 | 1017.6 |
| 20260506002505 | 39 | 336 | 5.0 | 12.0 | 0.00 | 0.01 | 0.01 | 68 | 1017.6 |
| 20260506001505 | 39 | 332 | 5.0 | 10.0 | 0.00 | 0.01 | 0.01 | 70 | 1017.6 |
| 20260506001005 | 39 | 328 | 6.0 | 10.0 | 0.00 | 0.01 | 0.01 | 71 | 1017.5 |
| 20260506000005 | 38 | 320 | 6.0 | 18.0 | 0.00 | 0.01 | 0.01 | 74 | 1017.6 |
| 20260505235505 | 37 | 336 | 9.0 | 18.0 | 0.00 | 0.01 | 0.01 | 74 | 1017.7 |
| 20260505234505 | 37 | 331 | 11.0 | 15.0 | 0.00 | 0.01 | 0.01 | 75 | 1017.5 |
| 20260505234005 | 37 | 338 | 10.0 | 16.0 | 0.00 | 0.01 | 0.01 | 76 | 1017.5 |
| 20260505233005 | 36 | 335 | 12.0 | 22.0 | 0.00 | 0.01 | 0.01 | 79 | 1017.3 |
| 20260505232505 | 36 | 347 | 12.0 | 23.0 | 0.00 | 0.01 | 0.01 | 79 | 1017.2 |
| 20260505232005 | 36 | 346 | 18.0 | 24.0 | 0.00 | 0.01 | 0.01 | 78 | 1017.2 |
| 20260505231505 | 37 | 352 | 16.0 | 24.0 | 0.00 | 0.01 | 0.01 | 74 | 1017.0 |
| 20260505231005 | 41 | 347 | 14.0 | 20.0 | 0.00 | 0.01 | 0.01 | 65 | 1017.0 |
| 20260505230005 | 43 | 195 | 5.0 | 7.0 | 0.00 | 0.01 | 0.01 | 61 | 1016.1 |
| 20260505225005 | 43 | 189 | 4.0 | 12.0 | 0.00 | 0.01 | 0.01 | 59 | 1016.1 |
| 20260505224505 | 44 | 192 | 6.0 | 12.0 | 0.00 | 0.01 | 0.01 | 61 | 1016.1 |
| 20260505224005 | 44 | 161 | 4.0 | 9.0 | 0.00 | 0.01 | 0.01 | 63 | 1016.1 |
| 20260505223505 | 43 | 192 | 6.0 | 10.0 | 0.00 | 0.01 | 0.01 | 64 | 1016.2 |
| 20260505222505 | 43 | 185 | 6.0 | 12.0 | 0.00 | 0.01 | 0.01 | 65 | 1016.1 |
| 20260505222006 | 43 | 166 | 7.0 | 12.0 | 0.00 | 0.01 | 0.01 | 64 | 1016.1 |
| 20260505221505 | 43 | 202 | 6.0 | 10.0 | 0.00 | 0.01 | 0.01 | 67 | 1016.1 |
| 20260505221005 | 43 | 165 | 7.0 | 10.0 | 0.00 | 0.01 | 0.01 | 68 | 1016.1 |
| 20260505220005 | 42 | 189 | 5.0 | 10.0 | 0.00 | 0.01 | 0.01 | 72 | 1016.2 |
| 20260505215505 | 41 | 197 | 6.0 | 10.0 | 0.00 | 0.01 | 0.01 | 74 | 1016.3 |
| 20260505214005 | 40 | 197 | 6.0 | 12.0 | 0.00 | 0.01 | 0.01 | 77 | 1016.2 |
| 20260505213005 | 39 | 243 | 8.0 | 12.0 | 0.00 | 0.01 | 0.01 | 82 | 1016.2 |